Location: LDNL
(36.4545°S, 141.6685°E)
Time: 05:10:13
(UTC+11:00)

Vanguard 2 - Pass Details

Date: 18 August 2022
Orbit: 552 x 2934 km, 32.9° (Epoch: 06 October)

Event Time Altitude Azimuth Distance (km) Brightness Sun altitude
Rises 23:13:09 0° 265° (W) 5,430 12.2 -59.9°
Enters shadow 23:18:03 - 281° (W) 4,222 11.4 -60.6°
Reaches altitude 10° 23:20:35 10° 293° (WNW) 3,708 - -60.9°
Maximum altitude 23:23:02 11° 309° (NW) 3,356 - -61.2°
Drops below altitude 10° 23:25:13 10° 325° (NW) 3,218 - -61.5°
Sets 23:30:10 0° 359° (N) 3,644 - -62.1°
